Flag for Germany Weather past 2 weeks in Frankenthal (Pfalz), Rhineland-Palatinate, Germany

Now
46 °F

Clear.


Feels Like: 45 °F
Forecast: 47 / 70 °F
Wind: 3 mph from Northeast

Location: Baden Wurttemberg - Neuostheim

Current Time: May 27, 2015 at 6:31:54 AM

Latest Report: May 27, 2015 at 5:50 AM


Visibility: 10 mi

Pressure: 30.24 "Hg

Humidity: 82%

Dew point: 41 °F

Location of Frankenthal (Pfalz)Location

Historic Weather in Frankenthal (Pfalz) — Graph

°F

Frankenthal (Pfalz) temperature yesterday

Maximum temperature yesterday: 61 °F (at 2:50 PM)
Minimum temperature yesterday: 52 °F (at 5:20 AM)
Average temperature yesterday: 57 °F

Past Weeks' High & Low Weather Summary

 TemperatureHumidityPressure
High86 °F (May 12, 3:50 PM)100% (May 15, 5:50 AM)30.33 "Hg (May 15, 5:50 AM)
Low41 °F (May 22, 5:20 AM)25% (May 18, 6:20 PM)29.71 "Hg (May 18, 6:50 PM)
Average63 °F52%30.05 "Hg
* Reported May 11 9:20 PM — May 26 9:20 PM, Frankenthal (Pfalz), Weather by CustomWeather, © 2015

Note: Actual official high and low records may vary slightly from our data, if they occured in-between our weather recording intervals... More about our weather records

Advertising

Frankenthal (Pfalz) weather history for previous 24 hours

 ConditionsComfort  
Time TempWeatherWind HumidityBarometerVisibility
9:20 PM
Tue, May 26
55 °FPassing clouds.9 mph51%30.18 "HgN/A
8:50 PM57 °FPassing clouds.8 mph48%30.18 "HgN/A
8:20 PM57 °FPassing clouds.9 mph48%30.18 "HgN/A
7:50 PM57 °FSunny.13 mph48%30.15 "Hg10 mi
7:20 PM59 °FPassing clouds.10 mph45%30.15 "HgN/A
6:50 PM59 °FPassing clouds.15 mph45%30.15 "HgN/A
6:20 PM59 °FSunny.14 mph45%30.12 "Hg10 mi
5:50 PM59 °FPassing clouds.10 mph45%30.12 "HgN/A
5:20 PM59 °FPassing clouds.16 mph45%30.12 "HgN/A
4:50 PM59 °FPassing clouds.13 mph42%30.12 "HgN/A
4:20 PM59 °FPassing clouds.15 mph42%30.12 "HgN/A
3:50 PM59 °FBroken clouds.12 mph45%30.09 "HgN/A
3:20 PM61 °FScattered clouds.10 mph42%30.09 "HgN/A
2:50 PM61 °FScattered clouds.13 mph42%30.09 "HgN/A
2:20 PM59 °FBroken clouds.10 mph51%30.09 "HgN/A
1:50 PM59 °FBroken clouds.9 mph48%30.09 "HgN/A
1:20 PM59 °FPartly sunny.9 mph51%30.09 "HgN/A
12:50 PM59 °FPartly sunny.9 mph51%30.09 "HgN/A
12:20 PM59 °FPartly sunny.10 mph48%30.09 "HgN/A
11:50 AM59 °FPartly sunny.9 mph59%30.07 "HgN/A
11:20 AM57 °FBroken clouds.10 mph63%30.07 "HgN/A
10:50 AM57 °FPartly sunny.8 mph63%30.07 "HgN/A
10:20 AM55 °FPartly sunny.10 mph72%30.07 "HgN/A
9:50 AM55 °FPartly sunny.10 mph72%30.07 "HgN/A
9:20 AM54 °FPartly sunny.10 mph77%30.07 "HgN/A
8:50 AM54 °FPartly sunny.10 mph77%30.07 "HgN/A
8:20 AM54 °FPassing clouds.6 mph77%30.04 "HgN/A
7:50 AM52 °FSunny.6 mph82%30.04 "Hg10 mi
7:20 AM52 °FSunny.6 mph82%30.04 "Hg10 mi
6:50 AM52 °FPassing clouds.7 mph82%30.01 "HgN/A
6:20 AM52 °FClear.7 mph82%30.01 "Hg10 mi
Weather by CustomWeather, © 2015

See weather overviewHow to use our weather pages